TimeCDT,TemperatureF,Dew PointF,Humidity,Sea Level PressureIn,VisibilityMPH,Wind Direction,Wind SpeedMPH,Gust SpeedMPH,PrecipitationIn,Events,Conditions,WindDirDegrees,DateUTC
12:53 AM,37.0,30.0,76,30.15,10.0,Calm,Calm,-,N/A,,Clear,0,2012-10-08 05:53:00
1:53 AM,35.1,28.9,78,30.15,10.0,Calm,Calm,-,N/A,,Clear,0,2012-10-08 06:53:00
2:53 AM,37.9,30.0,73,30.14,10.0,South,3.5,-,N/A,,Clear,190,2012-10-08 07:53:00
3:53 AM,34.0,28.0,79,30.12,10.0,Calm,Calm,-,N/A,,Clear,0,2012-10-08 08:53:00
4:53 AM,37.9,28.9,70,30.11,10.0,Calm,Calm,-,N/A,,Clear,0,2012-10-08 09:53:00
5:53 AM,39.0,28.9,67,30.12,10.0,Calm,Calm,-,N/A,,Clear,0,2012-10-08 10:53:00
6:53 AM,35.1,28.0,76,30.12,10.0,Calm,Calm,-,N/A,,Clear,0,2012-10-08 11:53:00
7:53 AM,39.0,30.0,70,30.11,10.0,Calm,Calm,-,N/A,,Clear,0,2012-10-08 12:53:00
8:53 AM,43.0,32.0,65,30.12,10.0,Variable,5.8,-,N/A,,Clear,0,2012-10-08 13:53:00
9:53 AM,51.1,34.0,52,30.10,10.0,SSW,11.5,16.1,N/A,,Clear,200,2012-10-08 14:53:00
10:53 AM,57.0,34.0,42,30.09,10.0,SSW,11.5,20.7,N/A,,Clear,200,2012-10-08 15:53:00
11:53 AM,60.1,35.1,39,30.07,10.0,SSW,15.0,23.0,N/A,,Clear,200,2012-10-08 16:53:00
12:53 PM,64.0,34.0,33,30.04,10.0,South,12.7,21.9,N/A,,Clear,180,2012-10-08 17:53:00
1:53 PM,66.0,33.1,29,30.00,10.0,South,19.6,28.8,N/A,,Clear,190,2012-10-08 18:53:00
2:53 PM,66.0,34.0,30,29.98,10.0,South,16.1,25.3,N/A,,Clear,180,2012-10-08 19:53:00
3:53 PM,68.0,33.1,27,29.95,10.0,SSW,18.4,25.3,N/A,,Clear,200,2012-10-08 20:53:00
4:53 PM,68.0,33.1,27,29.93,10.0,SSW,11.5,-,N/A,,Clear,200,2012-10-08 21:53:00
5:53 PM,66.9,33.1,28,29.92,10.0,SSW,12.7,19.6,N/A,,Clear,200,2012-10-08 22:53:00
6:53 PM,64.0,34.0,33,29.93,10.0,South,10.4,-,N/A,,Clear,180,2012-10-08 23:53:00
7:53 PM,61.0,35.1,38,29.94,10.0,South,9.2,-,N/A,,Clear,170,2012-10-09 00:53:00
8:53 PM,57.9,35.1,42,29.94,10.0,South,6.9,-,N/A,,Clear,170,2012-10-09 01:53:00
9:53 PM,55.9,35.1,45,29.95,10.0,South,6.9,-,N/A,,Clear,180,2012-10-09 02:53:00
10:53 PM,55.0,35.1,47,29.95,10.0,South,9.2,-,N/A,,Clear,180,2012-10-09 03:53:00
11:53 PM,54.0,36.0,51,29.94,10.0,SSW,15.0,20.7,N/A,,Clear,200,2012-10-09 04:53:00